Year,Month,Day,Hour,Minute,Value (Times are PST for temperature in C)
2020,03,30,00,00,5.90
2020,03,30,00,01,5.90
2020,03,30,00,02,6.00
2020,03,30,00,03,6.00
2020,03,30,00,04,6.00
2020,03,30,00,05,6.00
2020,03,30,00,06,6.00
2020,03,30,00,07,6.00
2020,03,30,00,08,5.90
2020,03,30,00,09,5.80
2020,03,30,00,10,5.70
2020,03,30,00,11,5.60
2020,03,30,00,12,5.50
2020,03,30,00,13,5.40
2020,03,30,00,14,5.40
2020,03,30,00,15,5.40
2020,03,30,00,16,5.30
2020,03,30,00,17,5.30
2020,03,30,00,18,5.30
2020,03,30,00,19,5.30
2020,03,30,00,20,5.30
2020,03,30,00,21,5.40
2020,03,30,00,22,5.40
2020,03,30,00,23,5.30
2020,03,30,00,24,5.30
2020,03,30,00,25,5.30
2020,03,30,00,26,5.30
2020,03,30,00,27,5.30
2020,03,30,00,28,5.30
2020,03,30,00,29,5.30
2020,03,30,00,30,5.40
2020,03,30,00,31,5.40
2020,03,30,00,32,5.40
2020,03,30,00,33,5.40
2020,03,30,00,34,5.40
2020,03,30,00,35,5.40
2020,03,30,00,36,5.40
2020,03,30,00,37,5.40
2020,03,30,00,38,5.40
2020,03,30,00,39,5.40
2020,03,30,00,40,5.40
2020,03,30,00,41,5.40
2020,03,30,00,42,5.50
2020,03,30,00,43,5.50
2020,03,30,00,44,5.50
2020,03,30,00,45,5.50
2020,03,30,00,46,5.50
2020,03,30,00,47,5.50
2020,03,30,00,48,5.50
2020,03,30,00,49,5.60
2020,03,30,00,50,5.60
2020,03,30,00,51,5.60
2020,03,30,00,52,5.60
2020,03,30,00,53,5.60
2020,03,30,00,54,5.70
2020,03,30,00,55,5.70
2020,03,30,00,56,5.70
2020,03,30,00,57,5.70
2020,03,30,00,58,5.70
2020,03,30,00,59,5.70
2020,03,30,01,00,5.70
2020,03,30,01,01,5.70
2020,03,30,01,02,5.70
2020,03,30,01,03,5.70
2020,03,30,01,04,5.70
2020,03,30,01,05,5.70
2020,03,30,01,06,5.70
2020,03,30,01,07,5.70
2020,03,30,01,08,5.70
2020,03,30,01,09,5.70
2020,03,30,01,10,5.70
2020,03,30,01,11,5.70
2020,03,30,01,12,5.70
2020,03,30,01,13,5.70
2020,03,30,01,14,5.70
2020,03,30,01,15,5.70
2020,03,30,01,16,5.70
2020,03,30,01,17,5.60
2020,03,30,01,18,5.60
2020,03,30,01,19,5.60
2020,03,30,01,20,5.60
2020,03,30,01,21,5.60
2020,03,30,01,22,5.60
2020,03,30,01,23,5.50
2020,03,30,01,24,5.50
2020,03,30,01,25,5.50
2020,03,30,01,26,5.50
2020,03,30,01,27,5.50
2020,03,30,01,28,5.40
2020,03,30,01,29,5.40
2020,03,30,01,30,5.40
2020,03,30,01,31,5.40
2020,03,30,01,32,5.40
2020,03,30,01,33,5.40
2020,03,30,01,34,5.40
2020,03,30,01,35,5.40
2020,03,30,01,36,5.40
2020,03,30,01,37,5.40
2020,03,30,01,38,5.40
2020,03,30,01,39,5.40
2020,03,30,01,40,5.40
2020,03,30,01,41,5.40
2020,03,30,01,42,5.40
2020,03,30,01,43,5.40
2020,03,30,01,44,5.40
2020,03,30,01,45,5.50
2020,03,30,01,46,5.50
2020,03,30,01,47,5.60
2020,03,30,01,48,5.60
2020,03,30,01,49,5.60
2020,03,30,01,50,5.60
2020,03,30,01,51,5.70
2020,03,30,01,52,5.70
2020,03,30,01,53,5.80
2020,03,30,01,54,5.80
2020,03,30,01,55,5.80
2020,03,30,01,56,5.90
2020,03,30,01,57,5.90
2020,03,30,01,58,5.90
2020,03,30,01,59,6.00
2020,03,30,02,00,6.00
2020,03,30,02,01,6.10
2020,03,30,02,02,6.10
2020,03,30,02,03,6.20
2020,03,30,02,04,6.20
2020,03,30,02,05,6.20
2020,03,30,02,06,6.20
2020,03,30,02,07,6.20
2020,03,30,02,08,6.30
2020,03,30,02,09,6.30
2020,03,30,02,10,6.30
2020,03,30,02,11,6.30
2020,03,30,02,12,6.40
2020,03,30,02,13,6.40
2020,03,30,02,14,6.40
2020,03,30,02,15,6.40
2020,03,30,02,16,6.40
2020,03,30,02,17,6.40
2020,03,30,02,18,6.50
2020,03,30,02,19,6.50
2020,03,30,02,20,6.50
2020,03,30,02,21,6.50
2020,03,30,02,22,6.50
2020,03,30,02,23,6.50
2020,03,30,02,24,6.50
2020,03,30,02,25,6.50
2020,03,30,02,26,6.60
2020,03,30,02,27,6.60
2020,03,30,02,28,6.60
2020,03,30,02,29,6.60
2020,03,30,02,30,6.60
2020,03,30,02,31,6.60
2020,03,30,02,32,6.60
2020,03,30,02,33,6.60
2020,03,30,02,34,6.60
2020,03,30,02,35,6.60
2020,03,30,02,36,6.60
2020,03,30,02,37,6.50
2020,03,30,02,38,6.50
2020,03,30,02,39,6.50
2020,03,30,02,40,6.50
2020,03,30,02,41,6.50
2020,03,30,02,42,6.50
2020,03,30,02,43,6.50
2020,03,30,02,44,6.50
2020,03,30,02,45,6.50
2020,03,30,02,46,6.50
2020,03,30,02,47,6.50
2020,03,30,02,48,6.50
2020,03,30,02,49,6.40
2020,03,30,02,50,6.40
2020,03,30,02,51,6.40
2020,03,30,02,52,6.40
2020,03,30,02,53,6.40
2020,03,30,02,54,6.40
2020,03,30,02,55,6.40
2020,03,30,02,56,6.40
2020,03,30,02,57,6.40
2020,03,30,02,58,6.40
2020,03,30,02,59,6.40
2020,03,30,03,00,6.40
2020,03,30,03,01,6.40
2020,03,30,03,02,6.40
2020,03,30,03,03,6.40
2020,03,30,03,04,6.40
2020,03,30,03,05,6.40
2020,03,30,03,06,6.30
2020,03,30,03,07,6.30
2020,03,30,03,08,6.30
2020,03,30,03,09,6.30
2020,03,30,03,10,6.30
2020,03,30,03,11,6.30
2020,03,30,03,12,6.30
2020,03,30,03,13,6.30
2020,03,30,03,14,6.30
2020,03,30,03,15,6.30
2020,03,30,03,16,6.30
2020,03,30,03,17,6.30
2020,03,30,03,18,6.30
2020,03,30,03,19,6.30
2020,03,30,03,20,6.30
2020,03,30,03,21,6.30
2020,03,30,03,22,6.30
2020,03,30,03,23,6.30
2020,03,30,03,24,6.30
2020,03,30,03,25,6.30
2020,03,30,03,26,6.30
2020,03,30,03,27,6.30
2020,03,30,03,28,6.30
2020,03,30,03,29,6.30
2020,03,30,03,30,6.30
2020,03,30,03,31,6.30
2020,03,30,03,32,6.30
2020,03,30,03,33,6.30
2020,03,30,03,34,6.30
2020,03,30,03,35,6.30
2020,03,30,03,36,6.30
2020,03,30,03,37,6.30
2020,03,30,03,38,6.30
2020,03,30,03,39,6.30
2020,03,30,03,40,6.30
2020,03,30,03,41,6.20
2020,03,30,03,42,6.20
2020,03,30,03,43,6.20
2020,03,30,03,44,6.20
2020,03,30,03,45,6.20
2020,03,30,03,46,6.20
2020,03,30,03,47,6.20
2020,03,30,03,48,6.20
2020,03,30,03,49,6.20
2020,03,30,03,50,6.20
2020,03,30,03,51,6.20
2020,03,30,03,52,6.20
2020,03,30,03,53,6.20
2020,03,30,03,54,6.20
2020,03,30,03,55,6.20
2020,03,30,03,56,6.20
2020,03,30,03,57,6.20
2020,03,30,03,58,6.10
2020,03,30,03,59,6.10
2020,03,30,04,00,6.10
2020,03,30,04,01,6.00
2020,03,30,04,02,6.00
2020,03,30,04,03,6.00
2020,03,30,04,04,5.90
2020,03,30,04,05,5.90
2020,03,30,04,06,5.80
2020,03,30,04,07,5.70
2020,03,30,04,08,5.70
2020,03,30,04,09,5.60
2020,03,30,04,10,5.60
2020,03,30,04,11,5.60
2020,03,30,04,12,5.60
2020,03,30,04,13,5.50
2020,03,30,04,14,5.50
2020,03,30,04,15,5.50
2020,03,30,04,16,5.40
2020,03,30,04,17,5.40
2020,03,30,04,18,5.40
2020,03,30,04,19,5.30
2020,03,30,04,20,5.30
2020,03,30,04,21,5.30
2020,03,30,04,22,5.30
2020,03,30,04,23,5.20
2020,03,30,04,24,5.20
2020,03,30,04,25,5.10
2020,03,30,04,26,5.10
2020,03,30,04,27,5.00
2020,03,30,04,28,5.00
2020,03,30,04,29,4.90
2020,03,30,04,30,4.90
2020,03,30,04,31,4.90
2020,03,30,04,32,4.90
2020,03,30,04,33,4.90
2020,03,30,04,34,4.90
2020,03,30,04,35,4.80
2020,03,30,04,36,4.80
2020,03,30,04,37,4.80
2020,03,30,04,38,4.70
2020,03,30,04,39,4.70
2020,03,30,04,40,4.70
2020,03,30,04,41,4.70
2020,03,30,04,42,4.70
2020,03,30,04,43,4.70
2020,03,30,04,44,4.70
2020,03,30,04,45,4.70
2020,03,30,04,46,4.70
2020,03,30,04,47,4.70
2020,03,30,04,48,4.60
2020,03,30,04,49,4.60
2020,03,30,04,50,4.60
2020,03,30,04,51,4.60
2020,03,30,04,52,4.60
2020,03,30,04,53,4.60
2020,03,30,04,54,4.60
2020,03,30,04,55,4.60
2020,03,30,04,56,4.50
2020,03,30,04,57,4.50
2020,03,30,04,58,4.40
2020,03,30,04,59,4.40
2020,03,30,05,00,4.40
2020,03,30,05,01,4.30
2020,03,30,05,02,4.30
2020,03,30,05,03,4.30
2020,03,30,05,04,4.20
2020,03,30,05,05,4.20
2020,03,30,05,06,4.20
2020,03,30,05,07,4.20
2020,03,30,05,08,4.10
2020,03,30,05,09,4.10
2020,03,30,05,10,4.10
2020,03,30,05,11,4.10
2020,03,30,05,12,4.00
2020,03,30,05,13,4.00
2020,03,30,05,14,4.00
2020,03,30,05,15,4.00
2020,03,30,05,16,4.00
2020,03,30,05,17,4.00
2020,03,30,05,18,4.00
2020,03,30,05,19,4.00
2020,03,30,05,20,4.00
2020,03,30,05,21,3.90
2020,03,30,05,22,3.90
2020,03,30,05,23,3.90
2020,03,30,05,24,3.90
2020,03,30,05,25,3.90
2020,03,30,05,26,3.90
2020,03,30,05,27,3.90
2020,03,30,05,28,3.90
2020,03,30,05,29,3.90
2020,03,30,05,30,3.90
2020,03,30,05,31,3.90
2020,03,30,05,32,3.90
2020,03,30,05,33,3.90
2020,03,30,05,34,3.90
2020,03,30,05,35,3.90
2020,03,30,05,36,3.90
2020,03,30,05,37,3.90
2020,03,30,05,38,3.90
2020,03,30,05,39,3.90
2020,03,30,05,40,3.90
2020,03,30,05,41,3.90
2020,03,30,05,42,3.90
2020,03,30,05,43,3.90
2020,03,30,05,44,3.90
2020,03,30,05,45,3.90
2020,03,30,05,46,3.90
2020,03,30,05,47,3.90
2020,03,30,05,48,3.90
2020,03,30,05,49,3.90
2020,03,30,05,50,3.90
2020,03,30,05,51,3.90
2020,03,30,05,52,3.90
2020,03,30,05,53,3.90
2020,03,30,05,54,3.90
2020,03,30,05,55,3.90
2020,03,30,05,56,3.90
2020,03,30,05,57,3.90
2020,03,30,05,58,3.90
2020,03,30,05,59,3.90
2020,03,30,06,00,3.90
2020,03,30,06,01,4.00
2020,03,30,06,02,4.00
2020,03,30,06,03,4.00
2020,03,30,06,04,4.10
2020,03,30,06,05,4.10
2020,03,30,06,06,4.10
2020,03,30,06,07,4.10
2020,03,30,06,08,4.10
2020,03,30,06,09,4.00
2020,03,30,06,10,4.00
2020,03,30,06,11,4.00
2020,03,30,06,12,3.90
2020,03,30,06,13,3.80
2020,03,30,06,14,3.70
2020,03,30,06,15,3.70
2020,03,30,06,16,3.60
2020,03,30,06,17,3.60
2020,03,30,06,18,3.60
2020,03,30,06,19,3.50
2020,03,30,06,20,3.50
2020,03,30,06,21,3.40
2020,03,30,06,22,3.40
2020,03,30,06,23,3.40
2020,03,30,06,24,3.30
2020,03,30,06,25,3.30
2020,03,30,06,26,3.30
2020,03,30,06,27,3.30
2020,03,30,06,28,3.20
2020,03,30,06,29,3.20
2020,03,30,06,30,3.20
2020,03,30,06,31,3.20
2020,03,30,06,32,3.20
2020,03,30,06,33,3.20
2020,03,30,06,34,3.20
2020,03,30,06,35,3.20
2020,03,30,06,36,3.20
2020,03,30,06,37,3.20
2020,03,30,06,38,3.10
2020,03,30,06,39,3.10
2020,03,30,06,40,3.10
2020,03,30,06,41,3.10
2020,03,30,06,42,3.10
2020,03,30,06,43,3.10
2020,03,30,06,44,3.10
2020,03,30,06,45,3.10
2020,03,30,06,46,3.10
2020,03,30,06,47,3.10
2020,03,30,06,48,3.10
2020,03,30,06,49,3.10
2020,03,30,06,50,3.20
2020,03,30,06,51,3.10
2020,03,30,06,52,3.20
2020,03,30,06,53,3.20
2020,03,30,06,54,3.20
2020,03,30,06,55,3.10
2020,03,30,06,56,3.20
2020,03,30,06,57,3.20
2020,03,30,06,58,3.20
2020,03,30,06,59,3.20
2020,03,30,07,00,3.20
2020,03,30,07,01,3.20
2020,03,30,07,02,3.30
2020,03,30,07,03,3.30
2020,03,30,07,04,3.30
2020,03,30,07,05,3.30
2020,03,30,07,06,3.30
2020,03,30,07,07,3.40
2020,03,30,07,08,3.40
2020,03,30,07,09,3.40
2020,03,30,07,10,3.40
2020,03,30,07,11,3.40
2020,03,30,07,12,3.40
2020,03,30,07,13,3.40
2020,03,30,07,14,3.40
2020,03,30,07,15,3.40
2020,03,30,07,16,3.40
2020,03,30,07,17,3.40
2020,03,30,07,18,3.40
2020,03,30,07,19,3.40
2020,03,30,07,20,3.40
2020,03,30,07,21,3.40
2020,03,30,07,22,3.40
2020,03,30,07,23,3.50
2020,03,30,07,24,3.50
2020,03,30,07,25,3.50
2020,03,30,07,26,3.50
2020,03,30,07,27,3.60
2020,03,30,07,28,3.60
2020,03,30,07,29,3.70
2020,03,30,07,30,3.70
2020,03,30,07,31,3.70
2020,03,30,07,32,3.70
2020,03,30,07,33,3.70
2020,03,30,07,34,3.70
2020,03,30,07,35,3.60
2020,03,30,07,36,3.60
2020,03,30,07,37,3.60
2020,03,30,07,38,3.60
2020,03,30,07,39,3.50
2020,03,30,07,40,3.50
2020,03,30,07,41,3.40
2020,03,30,07,42,3.40
2020,03,30,07,43,3.40
2020,03,30,07,44,3.40
2020,03,30,07,45,3.40
2020,03,30,07,46,3.40
2020,03,30,07,47,3.30
2020,03,30,07,48,3.30
2020,03,30,07,49,3.30
2020,03,30,07,50,3.20
2020,03,30,07,51,3.20
2020,03,30,07,52,3.10
2020,03,30,07,53,3.10
2020,03,30,07,54,3.10
2020,03,30,07,55,3.10
2020,03,30,07,56,3.00
2020,03,30,07,57,3.00
2020,03,30,07,58,3.00
2020,03,30,07,59,3.00
2020,03,30,08,00,3.00
2020,03,30,08,01,3.00
2020,03,30,08,02,3.00
2020,03,30,08,03,3.00
2020,03,30,08,04,3.10
2020,03,30,08,05,3.10
2020,03,30,08,06,3.10
2020,03,30,08,07,3.10
2020,03,30,08,08,3.10
2020,03,30,08,09,3.10
2020,03,30,08,10,3.20
2020,03,30,08,11,3.20
2020,03,30,08,12,3.20
2020,03,30,08,13,3.20
2020,03,30,08,14,3.20
2020,03,30,08,15,3.20
2020,03,30,08,16,3.20
2020,03,30,08,17,3.10
2020,03,30,08,18,3.10
2020,03,30,08,19,3.10
2020,03,30,08,20,3.10
2020,03,30,08,21,3.10
2020,03,30,08,22,3.10
2020,03,30,08,23,3.10
2020,03,30,08,24,3.10
2020,03,30,08,25,3.10
2020,03,30,08,26,3.10
2020,03,30,08,27,3.10
2020,03,30,08,28,3.10
2020,03,30,08,29,3.10
2020,03,30,08,30,3.10
2020,03,30,08,31,3.10
2020,03,30,08,32,3.10
2020,03,30,08,33,3.20
2020,03,30,08,34,3.20
2020,03,30,08,35,3.20
2020,03,30,08,36,3.20
2020,03,30,08,37,3.20
2020,03,30,08,38,3.20
2020,03,30,08,39,3.30
2020,03,30,08,40,3.30
2020,03,30,08,41,3.30
2020,03,30,08,42,3.30
2020,03,30,08,43,3.30
2020,03,30,08,44,3.30
2020,03,30,08,45,3.30
2020,03,30,08,46,3.30
2020,03,30,08,47,3.30
2020,03,30,08,48,3.30
2020,03,30,08,49,3.30
2020,03,30,08,50,3.30
2020,03,30,08,51,3.40
2020,03,30,08,52,3.40
2020,03,30,08,53,3.30
2020,03,30,08,54,3.30
2020,03,30,08,55,3.20
2020,03,30,08,56,3.20
2020,03,30,08,57,3.20
2020,03,30,08,58,3.20
2020,03,30,08,59,3.20
2020,03,30,09,00,3.20
2020,03,30,09,01,3.20
2020,03,30,09,02,3.30
2020,03,30,09,03,3.30
2020,03,30,09,04,3.30
2020,03,30,09,05,3.40
2020,03,30,09,06,3.40
2020,03,30,09,07,3.40
2020,03,30,09,08,3.40
2020,03,30,09,09,3.40
2020,03,30,09,10,3.40
2020,03,30,09,11,3.40
2020,03,30,09,12,3.40
2020,03,30,09,13,3.40
2020,03,30,09,14,3.40
2020,03,30,09,15,3.50
2020,03,30,09,16,3.50
2020,03,30,09,17,3.50
2020,03,30,09,18,3.50
2020,03,30,09,19,3.60
2020,03,30,09,20,3.60
2020,03,30,09,21,3.60
2020,03,30,09,22,3.70
2020,03,30,09,23,3.70
2020,03,30,09,24,3.70
2020,03,30,09,25,3.80
2020,03,30,09,26,3.80
2020,03,30,09,27,3.80
2020,03,30,09,28,3.80
2020,03,30,09,29,3.90
2020,03,30,09,30,3.90
2020,03,30,09,31,3.90
2020,03,30,09,32,4.00
2020,03,30,09,33,4.00
2020,03,30,09,34,4.00
2020,03,30,09,35,4.00
2020,03,30,09,36,4.00
2020,03,30,09,37,4.10
2020,03,30,09,38,4.10
2020,03,30,09,39,4.20
2020,03,30,09,40,4.20
2020,03,30,09,41,4.30
2020,03,30,09,42,4.30
2020,03,30,09,43,4.30
2020,03,30,09,44,4.40
2020,03,30,09,45,4.40
2020,03,30,09,46,4.40
2020,03,30,09,47,4.40
2020,03,30,09,48,4.50
2020,03,30,09,49,4.60
2020,03,30,09,50,4.60
2020,03,30,09,51,4.70
2020,03,30,09,52,4.70
2020,03,30,09,53,4.70
2020,03,30,09,54,4.70
2020,03,30,09,55,4.70
2020,03,30,09,56,4.80
2020,03,30,09,57,4.80
2020,03,30,09,58,4.80
2020,03,30,09,59,4.80
2020,03,30,10,00,4.90
2020,03,30,10,01,4.80
2020,03,30,10,02,4.80
2020,03,30,10,03,4.80
2020,03,30,10,04,4.80
2020,03,30,10,05,4.70
2020,03,30,10,06,4.80
2020,03,30,10,07,4.80
2020,03,30,10,08,4.80
2020,03,30,10,09,4.80
2020,03,30,10,10,4.90
2020,03,30,10,11,4.90
2020,03,30,10,12,5.00
2020,03,30,10,13,5.00
2020,03,30,10,14,5.10
2020,03,30,10,15,5.10
2020,03,30,10,16,5.10
2020,03,30,10,17,5.10
2020,03,30,10,18,5.00
2020,03,30,10,19,5.00
2020,03,30,10,20,5.10
2020,03,30,10,21,5.20
2020,03,30,10,22,5.20
2020,03,30,10,23,5.20
2020,03,30,10,24,5.30
2020,03,30,10,25,5.30
2020,03,30,10,26,5.40
2020,03,30,10,27,5.30
2020,03,30,10,28,5.30
2020,03,30,10,29,5.30
2020,03,30,10,30,5.30
2020,03,30,10,31,5.30
2020,03,30,10,32,5.20
2020,03,30,10,33,5.30
2020,03,30,10,34,5.20
2020,03,30,10,35,5.20
2020,03,30,10,36,5.10
2020,03,30,10,37,5.20
2020,03,30,10,38,5.20
2020,03,30,10,39,5.20
2020,03,30,10,40,5.30
2020,03,30,10,41,5.30
2020,03,30,10,42,5.30
2020,03,30,10,43,5.40
2020,03,30,10,44,5.40
2020,03,30,10,45,5.40
2020,03,30,10,46,5.30
2020,03,30,10,47,5.30
2020,03,30,10,48,5.40
2020,03,30,10,49,5.30
2020,03,30,10,50,5.40
2020,03,30,10,51,5.40
2020,03,30,10,52,5.40
2020,03,30,10,53,5.40
2020,03,30,10,54,5.30
2020,03,30,10,55,5.30
2020,03,30,10,56,5.30
2020,03,30,10,57,5.40
2020,03,30,10,58,5.30
2020,03,30,10,59,5.30
2020,03,30,11,00,5.30
2020,03,30,11,01,5.30
2020,03,30,11,02,5.30
2020,03,30,11,03,5.30
2020,03,30,11,04,5.20
2020,03,30,11,05,5.10
2020,03,30,11,06,5.00
2020,03,30,11,07,4.90
2020,03,30,11,08,4.80
2020,03,30,11,09,4.60
2020,03,30,11,10,4.50
2020,03,30,11,11,4.40
2020,03,30,11,12,4.40
2020,03,30,11,13,4.40
2020,03,30,11,14,4.40
2020,03,30,11,15,4.40
2020,03,30,11,16,4.40
2020,03,30,11,17,4.40
2020,03,30,11,18,4.40
2020,03,30,11,19,4.30
2020,03,30,11,20,4.30
2020,03,30,11,21,4.20
2020,03,30,11,22,4.20
2020,03,30,11,23,4.10
2020,03,30,11,24,4.00
2020,03,30,11,25,3.90
2020,03,30,11,26,3.80
2020,03,30,11,27,3.70
2020,03,30,11,28,3.70
2020,03,30,11,29,3.60
2020,03,30,11,30,3.60
2020,03,30,11,31,3.60
2020,03,30,11,32,3.60
2020,03,30,11,33,3.60
2020,03,30,11,34,3.60
2020,03,30,11,35,3.60
2020,03,30,11,36,3.60
2020,03,30,11,37,3.60
2020,03,30,11,38,3.70
2020,03,30,11,39,3.70
2020,03,30,11,40,3.80
2020,03,30,11,41,3.90
2020,03,30,11,42,4.00
2020,03,30,11,43,4.10
2020,03,30,11,44,4.20
2020,03,30,11,45,4.30
2020,03,30,11,46,4.30
2020,03,30,11,47,4.40
2020,03,30,11,48,4.40
2020,03,30,11,49,4.40
2020,03,30,11,50,4.40
2020,03,30,11,51,4.40
2020,03,30,11,52,4.30
2020,03,30,11,53,4.30
2020,03,30,11,54,4.30
2020,03,30,11,55,4.20
2020,03,30,11,56,4.20
2020,03,30,11,57,4.20
2020,03,30,11,58,4.10
2020,03,30,11,59,4.10
2020,03,30,12,00,4.00
2020,03,30,12,01,3.90
2020,03,30,12,02,3.80
2020,03,30,12,03,3.80
2020,03,30,12,04,3.80
2020,03,30,12,05,3.90
2020,03,30,12,06,4.00
2020,03,30,12,07,4.00
2020,03,30,12,08,4.00
2020,03,30,12,09,4.00
2020,03,30,12,10,4.00
2020,03,30,12,11,4.10
2020,03,30,12,12,4.20
2020,03,30,12,13,4.40
2020,03,30,12,14,4.50
2020,03,30,12,15,4.60
2020,03,30,12,16,4.70
2020,03,30,12,17,4.80
2020,03,30,12,18,4.60
2020,03,30,12,19,4.50
2020,03,30,12,20,4.40
2020,03,30,12,21,4.40
2020,03,30,12,22,4.40
2020,03,30,12,23,4.40
2020,03,30,12,24,4.40
2020,03,30,12,25,4.40
2020,03,30,12,26,4.50
2020,03,30,12,27,4.50
2020,03,30,12,28,4.60
2020,03,30,12,29,4.60
2020,03,30,12,30,4.60
2020,03,30,12,31,4.60
2020,03,30,12,32,4.70
2020,03,30,12,33,4.70
2020,03,30,12,34,4.70
2020,03,30,12,35,4.80
2020,03,30,12,36,4.80
2020,03,30,12,37,4.80
2020,03,30,12,38,4.80
2020,03,30,12,39,4.80
2020,03,30,12,40,4.70
2020,03,30,12,41,4.70
2020,03,30,12,42,4.60
2020,03,30,12,43,4.60
2020,03,30,12,44,4.60
2020,03,30,12,45,4.60
2020,03,30,12,46,4.60
2020,03,30,12,47,4.70
2020,03,30,12,48,4.70
2020,03,30,12,49,4.80
2020,03,30,12,50,4.80
2020,03,30,12,51,4.70
2020,03,30,12,52,4.70
2020,03,30,12,53,4.60
2020,03,30,12,54,4.60
2020,03,30,12,55,4.60
2020,03,30,12,56,4.50
2020,03,30,12,57,4.50
2020,03,30,12,58,4.40
2020,03,30,12,59,4.30
2020,03,30,13,00,4.20
2020,03,30,13,01,4.20
2020,03,30,13,02,4.20
2020,03,30,13,03,4.20
2020,03,30,13,04,4.20
2020,03,30,13,05,4.10
2020,03,30,13,06,4.10
2020,03,30,13,07,4.10
2020,03,30,13,08,4.10
2020,03,30,13,09,4.10
2020,03,30,13,10,4.10
2020,03,30,13,11,4.10
2020,03,30,13,12,4.00
2020,03,30,13,13,4.10
2020,03,30,13,14,4.20
2020,03,30,13,15,4.20
2020,03,30,13,16,4.30
2020,03,30,13,17,4.40
2020,03,30,13,18,4.40
2020,03,30,13,19,4.40
2020,03,30,13,20,4.50
2020,03,30,13,21,4.50
2020,03,30,13,22,4.50
2020,03,30,13,23,4.40
2020,03,30,13,24,4.40
2020,03,30,13,25,4.40
2020,03,30,13,26,4.40
2020,03,30,13,27,4.50
2020,03,30,13,28,4.40
2020,03,30,13,29,4.30
2020,03,30,13,30,4.20
2020,03,30,13,31,4.20
2020,03,30,13,32,4.10
2020,03,30,13,33,4.10
2020,03,30,13,34,4.10
2020,03,30,13,35,4.00
2020,03,30,13,36,4.00
2020,03,30,13,37,3.90
2020,03,30,13,38,3.90
2020,03,30,13,39,3.90
2020,03,30,13,40,3.90
2020,03,30,13,41,4.00
2020,03,30,13,42,4.00
2020,03,30,13,43,4.00
2020,03,30,13,44,4.10
2020,03,30,13,45,4.10
2020,03,30,13,46,4.10
2020,03,30,13,47,4.10
2020,03,30,13,48,4.10
2020,03,30,13,49,4.00
2020,03,30,13,50,4.00
2020,03,30,13,51,3.90
2020,03,30,13,52,3.90
2020,03,30,13,53,3.80
2020,03,30,13,54,3.70
2020,03,30,13,55,3.60
2020,03,30,13,56,3.50
2020,03,30,13,57,3.40
2020,03,30,13,58,3.40
2020,03,30,13,59,3.40
2020,03,30,14,00,3.50
2020,03,30,14,01,3.60
2020,03,30,14,02,3.80
2020,03,30,14,03,3.90
2020,03,30,14,04,4.10
2020,03,30,14,05,4.20
2020,03,30,14,06,4.20
2020,03,30,14,07,4.30
2020,03,30,14,08,4.40
2020,03,30,14,09,4.50
2020,03,30,14,10,4.70
2020,03,30,14,11,4.70
2020,03,30,14,12,4.80
2020,03,30,14,13,4.90
2020,03,30,14,14,5.00
2020,03,30,14,15,5.20
2020,03,30,14,16,5.30
2020,03,30,14,17,5.40
2020,03,30,14,18,5.40
2020,03,30,14,19,5.50
2020,03,30,14,20,5.50
2020,03,30,14,21,5.50
2020,03,30,14,22,5.50
2020,03,30,14,23,5.60
2020,03,30,14,24,5.60
2020,03,30,14,25,5.60
2020,03,30,14,26,5.70
2020,03,30,14,27,5.80
2020,03,30,14,28,5.70
2020,03,30,14,29,5.70
2020,03,30,14,30,5.70
2020,03,30,14,31,5.70
2020,03,30,14,32,5.70
2020,03,30,14,33,5.80
2020,03,30,14,34,5.90
2020,03,30,14,35,6.10
2020,03,30,14,36,6.10
2020,03,30,14,37,6.00
2020,03,30,14,38,6.10
2020,03,30,14,39,6.20
2020,03,30,14,40,6.20
2020,03,30,14,41,6.30
2020,03,30,14,42,6.40
2020,03,30,14,43,6.50
2020,03,30,14,44,6.60
2020,03,30,14,45,6.60
2020,03,30,14,46,6.50
2020,03,30,14,47,6.60
2020,03,30,14,48,6.60
2020,03,30,14,49,6.70
2020,03,30,14,50,6.80
2020,03,30,14,51,6.80
2020,03,30,14,52,6.80
2020,03,30,14,53,7.00
2020,03,30,14,54,7.00
2020,03,30,14,55,7.00
2020,03,30,14,56,7.10
2020,03,30,14,57,7.10
2020,03,30,14,58,7.10
2020,03,30,14,59,7.10
2020,03,30,15,00,7.10
2020,03,30,15,01,7.20
2020,03,30,15,02,7.20
2020,03,30,15,03,7.30
2020,03,30,15,04,7.50
2020,03,30,15,05,7.60
2020,03,30,15,06,7.40
2020,03,30,15,07,7.30
2020,03,30,15,08,7.30
2020,03,30,15,09,7.30
2020,03,30,15,10,7.20
2020,03,30,15,11,7.10
2020,03,30,15,12,7.00
2020,03,30,15,13,6.90
2020,03,30,15,14,6.90
2020,03,30,15,15,7.00
2020,03,30,15,16,7.00
2020,03,30,15,17,7.00
2020,03,30,15,18,6.90
2020,03,30,15,19,6.70
2020,03,30,15,20,6.70
2020,03,30,15,21,6.60
2020,03,30,15,22,6.50
2020,03,30,15,23,6.50
2020,03,30,15,24,6.40
2020,03,30,15,25,6.50
2020,03,30,15,26,6.60
2020,03,30,15,27,6.60
2020,03,30,15,28,6.70
2020,03,30,15,29,6.80
2020,03,30,15,30,6.80
2020,03,30,15,31,6.70
2020,03,30,15,32,6.60
2020,03,30,15,33,6.50
2020,03,30,15,34,6.30
2020,03,30,15,35,6.20
2020,03,30,15,36,6.00
2020,03,30,15,37,5.90
2020,03,30,15,38,5.80
2020,03,30,15,39,5.70
2020,03,30,15,40,5.60
2020,03,30,15,41,5.40
2020,03,30,15,42,5.30
2020,03,30,15,43,5.20
2020,03,30,15,44,5.10
2020,03,30,15,45,5.00
2020,03,30,15,46,4.90
2020,03,30,15,47,4.80
2020,03,30,15,48,4.70
2020,03,30,15,49,4.60
2020,03,30,15,50,4.50
2020,03,30,15,51,4.40
2020,03,30,15,52,4.50
2020,03,30,15,53,4.60
2020,03,30,15,54,4.60
2020,03,30,15,55,4.50
2020,03,30,15,56,4.40
2020,03,30,15,57,4.50
2020,03,30,15,58,4.50
2020,03,30,15,59,4.40
2020,03,30,16,00,4.40
2020,03,30,16,01,4.40
2020,03,30,16,02,4.40
2020,03,30,16,03,4.50
2020,03,30,16,04,4.60
2020,03,30,16,05,4.70
2020,03,30,16,06,4.60
2020,03,30,16,07,4.60
2020,03,30,16,08,4.70
2020,03,30,16,09,4.70
2020,03,30,16,10,4.60
2020,03,30,16,11,4.60
2020,03,30,16,12,4.60
2020,03,30,16,13,4.60
2020,03,30,16,14,4.60
2020,03,30,16,15,4.60
2020,03,30,16,16,4.60
2020,03,30,16,17,4.80
2020,03,30,16,18,4.80
2020,03,30,16,19,4.90
2020,03,30,16,20,5.00
2020,03,30,16,21,5.10
2020,03,30,16,22,5.30
2020,03,30,16,23,5.40
2020,03,30,16,24,5.50
2020,03,30,16,25,5.60
2020,03,30,16,26,5.70
2020,03,30,16,27,5.70
2020,03,30,16,28,5.60
2020,03,30,16,29,5.70
2020,03,30,16,30,5.70
2020,03,30,16,31,5.70
2020,03,30,16,32,5.80
2020,03,30,16,33,5.90
2020,03,30,16,34,6.10
2020,03,30,16,35,6.30
2020,03,30,16,36,6.20
2020,03,30,16,37,6.10
2020,03,30,16,38,6.10
2020,03,30,16,39,6.10
2020,03,30,16,40,6.10
2020,03,30,16,41,6.00
2020,03,30,16,42,6.00
2020,03,30,16,43,6.10
2020,03,30,16,44,6.20
2020,03,30,16,45,6.10
2020,03,30,16,46,6.10
2020,03,30,16,47,6.20
2020,03,30,16,48,6.30
2020,03,30,16,49,6.40
2020,03,30,16,50,6.40
2020,03,30,16,51,6.30
2020,03,30,16,52,6.20
2020,03,30,16,53,6.10
2020,03,30,16,54,6.00
2020,03,30,16,55,5.90
2020,03,30,16,56,5.90
2020,03,30,16,57,6.00
2020,03,30,16,58,6.00
2020,03,30,16,59,5.90
2020,03,30,17,00,5.80
2020,03,30,17,01,5.80
2020,03,30,17,02,5.80
2020,03,30,17,03,5.90
2020,03,30,17,04,6.00
2020,03,30,17,05,6.00
2020,03,30,17,06,6.10
2020,03,30,17,07,6.20
2020,03,30,17,08,6.20
2020,03,30,17,09,6.30
2020,03,30,17,10,6.40
2020,03,30,17,11,6.50
2020,03,30,17,12,6.50
2020,03,30,17,13,6.60
2020,03,30,17,14,6.70
2020,03,30,17,15,6.70
2020,03,30,17,16,6.70
2020,03,30,17,17,6.70
2020,03,30,17,18,6.70
2020,03,30,17,19,6.70
2020,03,30,17,20,6.70
2020,03,30,17,21,6.70
2020,03,30,17,22,6.60
2020,03,30,17,23,6.60
2020,03,30,17,24,6.60
2020,03,30,17,25,6.60
2020,03,30,17,26,6.60
2020,03,30,17,27,6.50
2020,03,30,17,28,6.40
2020,03,30,17,29,6.30
2020,03,30,17,30,6.20
2020,03,30,17,31,6.20
2020,03,30,17,32,6.20
2020,03,30,17,33,6.20
2020,03,30,17,34,6.10
2020,03,30,17,35,6.00
2020,03,30,17,36,6.00
2020,03,30,17,37,6.00
2020,03,30,17,38,6.00
2020,03,30,17,39,6.10
2020,03,30,17,40,6.10
2020,03,30,17,41,6.20
2020,03,30,17,42,6.20
2020,03,30,17,43,6.10
2020,03,30,17,44,6.10
2020,03,30,17,45,6.10
2020,03,30,17,46,6.00
2020,03,30,17,47,6.00
2020,03,30,17,48,5.90
2020,03,30,17,49,5.80
2020,03,30,17,50,5.80
2020,03,30,17,51,5.70
2020,03,30,17,52,5.60
2020,03,30,17,53,5.50
2020,03,30,17,54,5.40
2020,03,30,17,55,5.40
2020,03,30,17,56,5.30
2020,03,30,17,57,5.30
2020,03,30,17,58,5.20
2020,03,30,17,59,5.20
2020,03,30,18,00,5.10
2020,03,30,18,01,5.10
2020,03,30,18,02,5.00
2020,03,30,18,03,5.00
2020,03,30,18,04,5.00
2020,03,30,18,05,4.90
2020,03,30,18,06,4.90